GW5972 Weather Reports


time (UTC)temp
F
wind
direction
speed
knots
gust
knots
rain 1hr
in
rain 24hr
in
rain mn
in
humidity
%
barometer
mb
20260506011336 47 59 0.9 0.9 0.00 0.00 0.00 71 1009.0
20260506010837 47 59 0.0 0.0 0.00 0.00 0.00 72 1009.0
20260506010337 47 59 0.0 0.0 0.00 0.00 0.00 71 1009.0
20260506005836 47 59 0.0 0.0 0.00 0.00 0.00 71 1009.0
20260506005337 47 60 0.0 0.0 0.00 0.00 0.00 71 1009.0
20260506004836 47 60 0.0 0.9 0.00 0.00 0.00 72 1009.0
20260506004337 47 61 0.0 0.0 0.00 0.00 0.00 72 1009.0
20260506003836 47 61 0.0 0.9 0.00 0.00 0.00 71 1009.0
20260506003336 47 61 0.0 0.0 0.00 0.00 0.00 72 1009.0
20260506002836 47 61 0.0 0.0 0.00 0.00 0.00 72 1009.0
20260506002336 47 61 0.0 0.0 0.00 0.00 0.00 72 1009.0
20260506001837 47 61 0.0 0.9 0.00 0.00 0.00 72 1009.0
20260506001337 47 61 0.9 0.9 0.00 0.00 0.00 72 1009.0
20260506000836 47 61 0.0 0.0 0.00 0.00 0.00 72 1009.0
20260506000336 47 61 0.0 0.0 0.00 0.00 0.00 72 1009.0
20260505235836 47 61 0.0 0.9 0.00 0.00 0.00 72 1009.0
20260505235337 47 61 0.0 0.9 0.00 0.00 0.00 72 1009.0
20260505234837 48 61 0.0 0.0 0.00 0.00 0.00 72 1009.0
20260505234336 48 61 0.0 0.9 0.00 0.00 0.00 71 1009.0
20260505233837 48 61 0.0 0.9 0.00 0.00 0.00 71 1009.0
20260505233337 48 81 0.0 1.7 0.00 0.00 0.00 71 1009.0
20260505232837 48 101 0.0 0.9 0.00 0.00 0.00 71 1009.0
20260505232336 48 102 0.0 0.9 0.00 0.00 0.00 71 1009.0
20260505231836 48 102 0.0 0.9 0.00 0.00 0.00 70 1009.0
20260505231336 48 102 0.0 1.7 0.00 0.00 0.00 70 1009.0
20260505230837 48 180 0.0 0.0 0.00 0.00 0.00 70 1009.0
20260505230336 48 124 0.0 0.0 0.00 0.00 0.00 70 1009.0
20260505225836 48 115 0.0 0.9 0.00 0.00 0.00 69 1009.0
20260505225337 48 127 0.0 0.9 0.00 0.00 0.00 69 1009.0
20260505224836 48 128 0.0 0.0 0.00 0.00 0.00 69 1009.0
20260505224336 48 128 0.0 0.0 0.00 0.00 0.00 69 1009.0
20260505223836 48 128 0.0 0.9 0.00 0.00 0.00 69 1009.0
20260505223336 48 129 0.0 0.9 0.00 0.00 0.00 69 1009.0
20260505222837 48 129 0.0 0.9 0.00 0.00 0.00 69 1009.0
20260505222336 48 132 0.0 0.9 0.00 0.00 0.00 69 1009.0
20260505221836 48 132 0.9 0.9 0.00 0.00 0.00 68 1009.0
20260505221336 48 212 0.0 0.9 0.00 0.00 0.00 69 1009.0
20260505220836 49 111 0.0 0.9 0.00 0.00 0.00 68 1009.0
20260505220337 49 112 0.0 0.0 0.00 0.00 0.00 68 1009.0
20260505215836 49 114 0.9 1.7 0.00 0.00 0.00 69 1009.0
20260505215337 49 162 0.9 0.9 0.00 0.00 0.00 69 1009.0
20260505214837 49 181 0.0 0.9 0.00 0.00 0.00 69 1009.0
20260505214336 49 209 0.0 0.9 0.00 0.00 0.00 69 1009.0
20260505213836 49 130 0.0 0.0 0.00 0.00 0.00 71 1009.0
20260505213336 50 44 0.0 0.0 0.00 0.00 0.00 71 1009.0
20260505212836 50 44 0.0 0.9 0.00 0.00 0.00 71 1009.0
20260505212339 50 44 0.0 1.7 0.00 0.00 0.00 71 1009.0
20260505211450 50 44 0.9 0.9 0.00 0.00 0.00 71 1009.0
20260505210836 50 39 0.0 0.9 0.00 0.00 0.00 72 1009.0
20260505210337 50 39 0.0 0.9 0.00 0.00 0.00 71 1009.0
20260505205836 51 31 0.0 0.9 0.00 0.00 0.00 71 1009.0
20260505205337 51 30 0.0 0.0 0.00 0.00 0.00 72 1009.0
20260505204836 51 30 0.0 0.0 0.00 0.00 0.00 71 1009.0
20260505204336 51 30 0.0 0.0 0.00 0.00 0.00 71 1009.0
20260505203836 51 30 0.0 0.9 0.00 0.00 0.00 71 1009.0
20260505203337 51 31 0.9 0.9 0.00 0.00 0.00 71 1009.0
20260505202838 51 39 0.0 0.9 0.00 0.00 0.00 71 1009.0
20260505202336 51 39 0.0 0.0 0.00 0.00 0.00 72 1009.0
20260505201837 51 39 0.0 0.0 0.00 0.00 0.00 72 1009.0
20260505201337 51 39 0.0 0.9 0.00 0.00 0.00 72 1009.0
20260505200836 51 39 0.0 0.0 0.00 0.00 0.00 73 1009.0
20260505200336 51 39 0.0 0.0 0.00 0.00 0.00 73 1009.0
20260505195836 51 39 0.0 0.0 0.00 0.00 0.00 73 1008.0
20260505195337 51 43 0.9 1.7 0.00 0.00 0.00 72 1008.0
20260505194836 51 104 0.0 0.0 0.00 0.00 0.00 72 1008.0
20260505194336 51 27 0.9 1.7 0.00 0.00 0.00 71 1008.0
20260505193837 51 54 0.0 0.9 0.00 0.00 0.00 71 1008.0
20260505193337 51 42 0.0 0.0 0.00 0.00 0.00 70 1008.0
20260505192840 52 358 0.0 0.0 0.00 0.00 0.00 69 1008.0
20260505192336 52 58 0.9 1.7 0.00 0.00 0.00 69 1008.0
20260505191836 52 41 0.0 0.9 0.00 0.00 0.00 69 1008.0
20260505191337 52 32 0.0 0.0 0.00 0.00 0.00 70 1008.0
20260505190837 52 71 0.0 0.9 0.00 0.00 0.00 70 1008.0
20260505190336 52 56 0.0 0.9 0.00 0.00 0.00 69 1008.0
20260505185837 52 51 0.0 0.0 0.00 0.00 0.00 69 1008.0
20260505185336 52 57 0.9 1.7 0.00 0.00 0.00 69 1008.0
20260505184837 52 48 0.0 0.9 0.00 0.00 0.00 68 1008.0
20260505184337 52 343 0.9 1.7 0.00 0.00 0.00 68 1008.0
20260505183837 52 43 0.0 0.9 0.00 0.00 0.00 67 1008.0
20260505183337 52 41 0.0 0.9 0.00 0.00 0.00 68 1008.0
20260505182837 53 4 0.9 2.6 0.00 0.00 0.00 67 1008.0
20260505182336 53 72 0.9 2.6 0.00 0.00 0.00 67 1008.0
20260505181836 53 89 0.0 0.0 0.00 0.00 0.00 68 1008.0
20260505180849 53 41 0.0 0.9 0.00 0.00 0.00 68 1008.0
20260505180338 53 40 0.0 0.9 0.00 0.00 0.00 68 1008.0
20260505175836 53 40 0.0 1.7 0.00 0.00 0.00 66 1008.0
20260505175337 53 67 0.9 2.6 0.00 0.00 0.00 66 1008.0
20260505174837 53 84 0.9 0.9 0.00 0.00 0.00 67 1008.0
20260505174338 53 96 0.0 0.9 0.00 0.00 0.00 67 1008.0
20260505173837 53 15 0.9 0.9 0.00 0.00 0.00 66 1008.0
20260505173337 53 33 0.9 0.9 0.00 0.00 0.00 66 1008.0
20260505172836 54 350 0.9 4.3 0.00 0.00 0.00 65 1008.0
20260505172337 54 65 1.7 1.7 0.00 0.00 0.00 65 1008.0
20260505171840 54 16 0.9 2.6 0.00 0.00 0.00 66 1008.0
20260505171337 54 138 0.0 1.7 0.00 0.00 0.00 66 1008.0
20260505170836 54 42 0.9 2.6 0.00 0.00 0.00 68 1008.0
20260505170336 54 67 0.9 1.7 0.00 0.00 0.00 67 1008.0
20260505165837 53 46 0.9 0.9 0.00 0.00 0.00 69 1008.0
20260505165337 54 350 0.9 0.9 0.00 0.00 0.00 68 1008.0
20260505164837 54 57 1.7 2.6 0.00 0.00 0.00 68 1008.0
20260505164336 54 109 0.9 2.6 0.00 0.00 0.00 69 1008.0
20260505163836 54 69 1.7 4.3 0.00 0.00 0.00 68 1008.0
20260505163337 54 89 0.0 1.7 0.00 0.00 0.00 69 1008.0
20260505162837 54 34 0.0 1.7 0.00 0.00 0.00 70 1008.0
20260505162337 54 86 0.0 2.6 0.00 0.00 0.00 68 1008.0
20260505161836 55 63 0.0 2.6 0.00 0.00 0.00 67 1008.0
20260505161336 55 37 0.0 5.2 0.00 0.00 0.00 67 1008.0
20260505160837 54 51 0.0 0.9 0.00 0.00 0.00 68 1008.0
20260505160337 54 71 0.9 1.7 0.00 0.00 0.00 67 1008.0
20260505153336 56 65 0.9 1.7 0.00 0.00 0.00 62 1008.0
20260505152836 56 85 0.0 0.9 0.00 0.00 0.00 61 1008.0
20260505152341 56 84 0.9 1.7 0.00 0.00 0.00 63 1008.0
20260505151836 55 102 0.0 1.7 0.00 0.00 0.00 62 1008.0
20260505151337 55 85 0.9 0.9 0.00 0.00 0.00 62 1008.0
20260505150837 56 73 0.0 4.3 0.00 0.00 0.00 63 1008.0
20260505150336 56 81 0.9 1.7 0.00 0.00 0.00 62 1008.0
20260505140337 55 91 0.9 1.7 0.00 0.00 0.00 64 1008.0
20260505124836 56 66 0.0 2.6 0.00 0.00 0.00 66 1009.0
20260505124336 56 74 0.9 2.6 0.00 0.00 0.00 66 1008.0
20260505123837 56 37 1.7 5.2 0.00 0.00 0.00 67 1008.0
20260505123339 55 55 0.9 1.7 0.00 0.00 0.00 69 1008.0
20260505122837 55 314 0.9 4.3 0.00 0.00 0.00 67 1008.0
20260505122336 55 43 0.9 2.6 0.00 0.00 0.00 67 1008.0
20260505121837 55 93 0.0 1.7 0.00 0.00 0.00 70 1008.0
20260505121336 56 72 1.7 2.6 0.00 0.00 0.00 67 1009.0
20260505120836 55 59 0.9 4.3 0.00 0.00 0.00 68 1008.0
20260505120337 57 43 1.7 2.6 0.00 0.00 0.00 68 1008.0
20260505115836 57 318 0.9 2.6 0.00 0.00 0.00 66 1008.0
20260505115336 57 63 0.9 2.6 0.00 0.00 0.00 65 1008.0
20260505114837 55 74 0.9 1.7 0.00 0.00 0.00 69 1008.0
20260505114337 55 102 0.9 0.9 0.00 0.00 0.00 71 1008.0
20260505113837 55 40 1.7 4.3 0.00 0.00 0.00 70 1009.0
20260505113336 55 65 2.6 2.6 0.00 0.00 0.00 70 1009.0
20260505112836 53 4 0.0 0.9 0.00 0.00 0.00 76 1009.0
20260505112336 52 100 0.0 0.9 0.00 0.00 0.00 75 1008.0
20260505111836 52 99 0.0 1.7 0.00 0.00 0.00 76 1009.0
20260505111337 51 100 0.0 0.9 0.00 0.00 0.00 82 1009.0
20260505110836 51 74 0.0 0.9 0.00 0.00 0.00 84 1009.0
20260505110336 51 204 0.9 0.9 0.00 0.00 0.00 84 1009.0
20260505101836 51 40 0.0 0.9 0.00 0.00 0.00 79 1009.0
20260505101336 52 311 0.0 1.7 0.00 0.00 0.00 80 1009.0
20260505100836 52 40 0.9 1.7 0.00 0.00 0.00 81 1009.0
20260505100337 53 21 0.9 6.1 0.00 0.00 0.00 78 1009.0
20260505095837 54 342 2.6 2.6 0.00 0.00 0.00 75 1009.0
20260505095341 54 32 1.7 4.3 0.00 0.00 0.00 74 1008.0
20260505094837 54 68 1.7 1.7 0.00 0.00 0.00 74 1008.0
20260505094336 54 97 0.9 0.9 0.00 0.00 0.00 74 1008.0
20260505093836 53 52 0.0 0.0 0.00 0.00 0.00 76 1008.0
20260505093336 53 51 0.9 0.9 0.00 0.00 0.00 74 1008.0
20260505092837 53 51 0.0 0.9 0.00 0.00 0.00 76 1009.0
20260505092337 53 48 0.0 2.6 0.00 0.00 0.00 77 1009.0
20260505091836 53 35 0.9 2.6 0.00 0.00 0.00 76 1009.0
20260505091336 53 352 0.0 1.7 0.00 0.00 0.00 77 1009.0
20260505090837 52 62 0.9 0.9 0.00 0.00 0.00 77 1008.0
20260505090336 52 46 0.9 1.7 0.00 0.00 0.00 77 1008.0
20260505085836 52 31 0.0 0.9 0.00 0.00 0.00 80 1009.0
20260505085337 52 26 0.9 1.7 0.00 0.00 0.00 80 1009.0
20260505084836 52 90 0.9 0.9 0.00 0.00 0.00 80 1009.0
20260505084336 51 90 0.9 0.9 0.00 0.00 0.00 80 1009.0
20260505083836 51 42 0.9 2.6 0.00 0.00 0.00 80 1009.0
20260505083336 51 5 0.9 0.9 0.00 0.00 0.00 80 1009.0
20260505082837 51 59 0.9 1.7 0.00 0.00 0.00 81 1009.0
20260505082337 51 60 0.0 1.7 0.00 0.00 0.00 82 1009.0
20260505081837 51 66 0.0 1.7 0.00 0.00 0.00 82 1009.0
20260505081336 51 33 0.0 2.6 0.00 0.00 0.00 81 1009.0
20260505080837 51 54 0.9 0.9 0.00 0.00 0.00 83 1009.0
20260505080337 51 54 0.0 0.9 0.00 0.00 0.00 83 1009.0
20260505075836 51 53 0.9 0.9 0.00 0.00 0.00 84 1009.0
20260505075336 51 87 0.0 0.9 0.00 0.00 0.00 84 1009.0
20260505074836 51 57 0.0 0.9 0.00 0.00 0.00 84 1009.0
20260505074337 51 55 0.0 0.0 0.00 0.00 0.00 85 1009.0
20260505073839 51 56 0.9 0.9 0.00 0.00 0.00 86 1009.0
20260505073336 50 80 0.0 0.0 0.00 0.00 0.00 87 1009.0
20260505072837 50 80 0.0 1.7 0.00 0.00 0.00 87 1009.0
20260505072337 50 65 0.0 0.0 0.00 0.00 0.00 88 1009.0
20260505071836 50 60 0.0 0.0 0.00 0.00 0.00 88 1008.0
20260505071336 50 60 0.0 0.9 0.00 0.00 0.00 88 1009.0
20260505070837 50 28 0.0 0.0 0.00 0.00 0.00 88 1008.0
20260505070336 50 76 0.0 0.9 0.00 0.00 0.00 88 1009.0
20260505065836 50 100 0.0 0.9 0.00 0.00 0.00 87 1009.0
20260505065336 50 91 0.0 0.9 0.00 0.00 0.00 87 1009.0
20260505064836 50 91 0.0 0.9 0.00 0.00 0.00 86 1009.0
20260505064337 50 72 0.0 0.9 0.00 0.00 0.00 86 1009.0
20260505063837 50 73 0.0 0.0 0.00 0.00 0.00 86 1009.0
20260505063337 50 73 0.0 0.9 0.00 0.00 0.00 86 1009.0
20260505062837 50 82 0.0 0.9 0.00 0.00 0.00 86 1009.0
20260505062336 50 70 0.0 0.9 0.00 0.00 0.00 86 1009.0
20260505061837 50 70 0.0 1.7 0.00 0.00 0.00 86 1009.0
20260505061338 50 71 0.9 0.9 0.00 0.00 0.00 87 1009.0
20260505060837 49 55 0.9 0.9 0.00 0.00 0.00 87 1009.0
20260505060336 49 56 0.0 0.9 0.00 0.00 0.00 87 1009.0
20260505055836 49 56 0.0 0.0 0.00 0.00 0.00 88 1009.0
20260505055336 49 51 0.0 0.0 0.00 0.00 0.00 88 1009.0
20260505054836 48 51 0.0 0.9 0.00 0.00 0.00 89 1009.0
20260505054337 48 46 0.0 0.9 0.00 0.00 0.00 90 1008.0
20260505053836 48 77 0.0 0.9 0.00 0.00 0.00 91 1009.0
20260505053336 48 77 0.0 0.9 0.00 0.00 0.00 91 1008.0
20260505052837 47 78 0.0 0.9 0.00 0.00 0.00 91 1009.0
20260505052336 47 77 0.0 0.9 0.00 0.00 0.00 91 1008.0
20260505051837 47 69 0.0 0.9 0.00 0.00 0.00 91 1008.0
20260505051337 47 69 0.0 0.9 0.00 0.00 0.00 92 1009.0
20260505050836 47 68 0.0 0.0 0.00 0.00 0.00 92 1009.0
20260505050337 46 68 0.0 0.0 0.00 0.00 0.00 92 1008.0
20260505041337 45 67 0.0 0.0 0.00 0.00 0.00 91 1008.0
20260505040837 45 67 0.0 0.0 0.00 0.00 0.00 91 1008.0
20260505040337 45 67 0.0 0.0 0.00 0.00 0.00 91 1008.0
20260505035836 45 67 0.0 0.0 0.00 0.00 0.00 91 1008.0
20260505035336 45 67 0.0 0.0 0.00 0.00 0.00 91 1008.0
20260505034837 45 67 0.0 0.0 0.00 0.00 0.00 92 1008.0
20260505034336 45 65 0.0 0.0 0.00 0.00 0.00 92 1008.0
20260505033837 45 65 0.0 0.0 0.00 0.00 0.00 92 1008.0
20260505033336 45 65 0.0 0.0 0.00 0.00 0.00 93 1008.0
20260505032836 45 86 0.0 0.9 0.00 0.00 0.00 93 1008.0
20260505032336 45 85 0.0 0.0 0.00 0.00 0.00 93 1009.0
20260505031836 45 85 0.0 0.0 0.00 0.00 0.00 93 1008.0
20260505031336 45 85 0.0 0.0 0.00 0.00 0.00 93 1008.0
20260505030837 45 85 0.0 0.9 0.00 0.00 0.00 94 1008.0
20260505030336 45 71 0.0 0.0 0.00 0.00 0.00 94 1009.0
20260505025836 45 66 0.0 0.0 0.00 0.00 0.00 94 1009.0
20260505025336 45 77 0.0 0.0 0.00 0.00 0.00 94 1008.0
20260505024836 46 77 0.0 0.0 0.00 0.00 0.00 94 1008.0
20260505024337 46 77 0.0 0.0 0.00 0.00 0.00 94 1009.0
20260505023836 45 77 0.0 0.9 0.00 0.00 0.00 94 1009.0
20260505023336 45 77 0.0 0.0 0.00 0.00 0.00 93 1008.0
20260505022837 46 77 0.0 0.0 0.00 0.00 0.00 93 1009.0
20260505022337 46 77 0.0 0.0 0.00 0.00 0.00 93 1008.0
20260505021838 46 77 0.0 0.0 0.00 0.00 0.00 93 1008.0
20260505021337 46 77 0.0 0.0 0.00 0.00 0.00 93 1009.0
20260505020836 46 77 0.0 0.0 0.00 0.00 0.00 93 1009.0
20260505020337 46 77 0.0 0.0 0.00 0.00 0.00 93 1009.0
20260505015837 46 77 0.0 0.0 0.00 0.00 0.00 93 1009.0
20260505015336 47 77 0.0 0.0 0.00 0.00 0.00 93 1009.0
20260505014837 47 77 0.0 0.0 0.00 0.00 0.00 93 1009.0
20260505014336 47 77 0.0 0.0 0.00 0.00 0.00 93 1009.0
20260505013836 47 77 0.0 0.0 0.00 0.00 0.00 93 1009.0
20260505013336 47 77 0.0 0.0 0.00 0.00 0.00 93 1009.0
20260505012836 47 77 0.0 0.9 0.00 0.00 0.00 93 1009.0
20260505012336 47 78 0.0 0.9 0.00 0.00 0.00 93 1009.0
20260505011836 47 77 0.0 0.9 0.00 0.00 0.00 93 1009.0